Location: Krakow
(50.0830°N, 19.9170°E)
Time: 10:59:50
(UTC+01:00)

Transit 2A - Pass Details

Date: 09 February 2023
Orbit: 591 x 964 km, 66.7° (Epoch: 21 March)

Event Time Altitude Azimuth Distance (km) Brightness Sun altitude
Rises 15:39:26 0° 212° (SSW) 3,023 10.5 8.7°
Reaches altitude 10° 15:41:38 10° 211° (SSW) 2,162 9.8 8.4°
Maximum altitude 15:46:34 83° 125° (SE) 770 6.2 7.8°
Drops below altitude 10° 15:52:08 10° 38° (NE) 2,429 8.0 7.0°
Sets 15:54:44 0° 38° (NE) 3,426 8.8 6.7°
